| time (UTC) | temp C | wind direction | speed KPH | gust KPH | rain 1hr cm | rain 24hr cm | rain mn cm | humidity % | barometer mb |
| 20260506032911 | 7 | 342 | 16.1 | 22.5 | 0.00 | 0.00 | 0.00 | 86 | 1011.4 |
| 20260506031909 | 7 | 355 | 14.5 | 20.9 | 0.00 | 0.00 | 0.00 | 86 | 1011.4 |
| 20260506030933 | 7 | 351 | 16.1 | 20.9 | 0.00 | 0.00 | 0.00 | 86 | 1011.5 |
| 20260506025952 | 8 | 355 | 14.5 | 20.9 | 0.00 | 0.00 | 0.00 | 86 | 1011.6 |
| 20260506025001 | 8 | 0 | 14.5 | 20.9 | 0.00 | 0.00 | 0.00 | 86 | 1011.5 |
| 20260506024017 | 8 | 346 | 14.5 | 19.3 | 0.00 | 0.00 | 0.00 | 85 | 1011.6 |
| 20260506023001 | 8 | 350 | 17.7 | 22.5 | 0.00 | 0.00 | 0.00 | 85 | 1011.7 |
| 20260506022003 | 8 | 349 | 16.1 | 22.5 | 0.00 | 0.00 | 0.00 | 85 | 1011.8 |
| 20260506020939 | 8 | 355 | 16.1 | 22.5 | 0.00 | 0.00 | 0.00 | 85 | 1011.8 |
| 20260506015919 | 8 | 355 | 12.9 | 22.5 | 0.00 | 0.00 | 0.00 | 86 | 1011.8 |
| 20260506013815 | 8 | 346 | 8.0 | 14.5 | 0.00 | 0.00 | 0.00 | 88 | 1011.9 |
| 20260506012830 | 8 | 330 | 9.7 | 14.5 | 0.00 | 0.00 | 0.00 | 87 | 1011.8 |
| 20260506011841 | 8 | 5 | 6.4 | 14.5 | 0.00 | 0.00 | 0.00 | 87 | 1011.8 |
| 20260506010830 | 8 | 16 | 8.0 | 17.7 | 0.00 | 0.00 | 0.00 | 87 | 1012.0 |
| 20260506005847 | 8 | 19 | 9.7 | 17.7 | 0.00 | 0.00 | 0.00 | 87 | 1011.9 |
| 20260506004907 | 9 | 12 | 11.3 | 17.7 | 0.00 | 0.00 | 0.00 | 87 | 1012.0 |
| 20260506003927 | 9 | 5 | 9.7 | 19.3 | 0.00 | 0.00 | 0.00 | 87 | 1012.1 |
| 20260506001810 | 8 | 17 | 9.7 | 19.3 | 0.00 | 0.00 | 0.00 | 87 | 1012.2 |
| 20260506000736 | 8 | 5 | 9.7 | 19.3 | 0.00 | 0.00 | 0.00 | 87 | 1012.2 |
| 20260505235730 | 9 | 5 | 9.7 | 17.7 | 0.00 | 0.00 | 0.00 | 87 | 1012.2 |
| 20260505234704 | 9 | 5 | 9.7 | 16.1 | 0.00 | 0.00 | 0.00 | 87 | 1012.2 |
| 20260505233632 | 9 | 355 | 9.7 | 19.3 | 0.00 | 0.00 | 0.00 | 86 | 1012.3 |
| 20260505232603 | 9 | 355 | 9.7 | 19.3 | 0.00 | 0.00 | 0.00 | 86 | 1012.3 |
| 20260505231548 | 9 | 19 | 9.7 | 14.5 | 0.00 | 0.00 | 0.00 | 85 | 1012.3 |
| 20260505230612 | 9 | 5 | 8.0 | 14.5 | 0.00 | 0.00 | 0.00 | 85 | 1012.4 |
| 20260505225612 | 9 | 5 | 8.0 | 14.5 | 0.00 | 0.00 | 0.00 | 85 | 1012.4 |
| 20260505224558 | 9 | 19 | 9.7 | 14.5 | 0.00 | 0.00 | 0.00 | 84 | 1012.5 |
| 20260505223531 | 9 | 19 | 9.7 | 17.7 | 0.00 | 0.00 | 0.00 | 84 | 1012.5 |
| 20260505222524 | 9 | 5 | 9.7 | 20.9 | 0.00 | 0.00 | 0.00 | 83 | 1012.5 |
| 20260505221504 | 10 | 26 | 9.7 | 20.9 | 0.00 | 0.00 | 0.00 | 83 | 1012.6 |
| 20260505220501 | 10 | 17 | 11.3 | 20.9 | 0.00 | 0.00 | 0.00 | 82 | 1012.5 |
| 20260505215459 | 10 | 14 | 11.3 | 22.5 | 0.00 | 0.00 | 0.00 | 82 | 1012.5 |
| 20260505214438 | 10 | 5 | 12.9 | 22.5 | 0.00 | 0.00 | 0.00 | 81 | 1012.4 |
| 20260505213418 | 10 | 24 | 11.3 | 17.7 | 0.00 | 0.00 | 0.00 | 81 | 1012.4 |
| 20260505212343 | 10 | 17 | 11.3 | 27.4 | 0.00 | 0.00 | 0.00 | 81 | 1012.4 |
| 20260505211322 | 10 | 32 | 11.3 | 27.4 | 0.00 | 0.00 | 0.00 | 80 | 1012.4 |
| 20260505210305 | 11 | 38 | 12.9 | 25.7 | 0.00 | 0.00 | 0.00 | 80 | 1012.3 |
| 20260505205324 | 11 | 45 | 16.1 | 25.7 | 0.00 | 0.00 | 0.00 | 80 | 1012.4 |
| 20260505204333 | 11 | 42 | 17.7 | 22.5 | 0.00 | 0.00 | 0.00 | 79 | 1012.3 |
| 20260505203327 | 11 | 58 | 12.9 | 22.5 | 0.00 | 0.00 | 0.00 | 78 | 1012.3 |
| 20260505201224 | 11 | 51 | 6.4 | 14.5 | 0.00 | 0.00 | 0.00 | 78 | 1012.3 |
| 20260505195100 | 12 | 59 | 11.3 | 16.1 | 0.00 | 0.00 | 0.00 | 76 | 1012.0 |
| 20260505194048 | 12 | 70 | 9.7 | 17.7 | 0.00 | 0.00 | 0.00 | 76 | 1011.8 |
| 20260505193021 | 12 | 62 | 11.3 | 17.7 | 0.00 | 0.00 | 0.00 | 76 | 1011.7 |
| 20260505192011 | 12 | 62 | 9.7 | 16.1 | 0.00 | 0.00 | 0.00 | 77 | 1011.6 |
| 20260505190952 | 12 | 101 | 8.0 | 16.1 | 0.00 | 0.00 | 0.00 | 77 | 1011.4 |
| 20260505190007 | 12 | 78 | 9.7 | 16.1 | 0.00 | 0.00 | 0.00 | 77 | 1011.2 |
| 20260505183835 | 12 | 75 | 14.5 | 17.7 | 0.00 | 0.00 | 0.00 | 75 | 1011.3 |
| 20260505182843 | 12 | 71 | 16.1 | 19.3 | 0.00 | 0.00 | 0.00 | 75 | 1011.3 |
| 20260505181822 | 12 | 83 | 14.5 | 22.5 | 0.00 | 0.00 | 0.00 | 74 | 1011.3 |
| 20260505180828 | 12 | 69 | 16.1 | 22.5 | 0.00 | 0.00 | 0.00 | 73 | 1011.3 |
| 20260505175849 | 12 | 84 | 16.1 | 19.3 | 0.00 | 0.00 | 0.00 | 72 | 1011.3 |
| 20260505174830 | 12 | 109 | 11.3 | 19.3 | 0.00 | 0.00 | 0.00 | 74 | 1011.3 |
| 20260505172616 | 12 | 108 | 11.3 | 20.9 | 0.00 | 0.00 | 0.00 | 78 | 1011.2 |
| 20260505170515 | 12 | 117 | 16.1 | 20.9 | 0.00 | 0.00 | 0.00 | 73 | 1011.3 |
| 20260505165458 | 12 | 106 | 14.5 | 22.5 | 0.00 | 0.00 | 0.00 | 72 | 1011.3 |
| 20260505164510 | 12 | 107 | 16.1 | 22.5 | 0.00 | 0.00 | 0.00 | 72 | 1011.4 |
| 20260505163447 | 12 | 95 | 12.9 | 20.9 | 0.00 | 0.00 | 0.00 | 71 | 1011.4 |
| 20260505162440 | 12 | 113 | 16.1 | 20.9 | 0.00 | 0.00 | 0.00 | 72 | 1011.0 |
| 20260505161453 | 12 | 98 | 14.5 | 20.9 | 0.00 | 0.00 | 0.00 | 71 | 1011.1 |
| 20260505160518 | 12 | 114 | 16.1 | 24.1 | 0.00 | 0.00 | 0.00 | 70 | 1011.2 |
| 20260505152521 | 12 | 115 | 14.5 | 22.5 | 0.00 | 0.00 | 0.00 | 68 | 1011.4 |
| 20260505140126 | 12 | 110 | 16.1 | 20.9 | 0.00 | 0.00 | 0.00 | 72 | 1011.7 |
| 20260505121322 | 13 | 105 | 16.1 | 22.5 | 0.00 | 0.00 | 0.00 | 67 | 1011.6 |
| 20260505120325 | 13 | 94 | 17.7 | 22.5 | 0.00 | 0.00 | 0.00 | 66 | 1011.6 |
| 20260505115328 | 13 | 113 | 19.3 | 24.1 | 0.00 | 0.00 | 0.00 | 67 | 1011.6 |
| 20260505114328 | 13 | 98 | 20.9 | 25.7 | 0.00 | 0.00 | 0.00 | 68 | 1011.7 |
| 20260505112115 | 14 | 95 | 16.1 | 20.9 | 0.00 | 0.00 | 0.00 | 67 | 1011.6 |
| 20260505111047 | 14 | 95 | 11.3 | 19.3 | 0.00 | 0.00 | 0.00 | 66 | 1011.8 |
| 20260505110104 | 13 | 99 | 11.3 | 17.7 | 0.00 | 0.00 | 0.00 | 67 | 1011.9 |
| 20260505102038 | 13 | 111 | 9.7 | 17.7 | 0.00 | 0.00 | 0.00 | 69 | 1012.3 |
| 20260505101012 | 13 | 101 | 9.7 | 17.7 | 0.00 | 0.00 | 0.00 | 70 | 1012.3 |
| 20260505094844 | 13 | 101 | 12.9 | 19.3 | 0.00 | 0.00 | 0.00 | 69 | 1012.4 |
| 20260505093834 | 13 | 90 | 11.3 | 19.3 | 0.00 | 0.00 | 0.00 | 70 | 1012.4 |
| 20260505092812 | 13 | 80 | 8.0 | 16.1 | 0.00 | 0.00 | 0.00 | 71 | 1012.4 |
| 20260505091829 | 13 | 60 | 6.4 | 14.5 | 0.00 | 0.00 | 0.00 | 70 | 1012.4 |
| 20260505090814 | 12 | 70 | 6.4 | 14.5 | 0.00 | 0.00 | 0.00 | 70 | 1012.4 |
| 20260505085757 | 12 | 74 | 8.0 | 14.5 | 0.00 | 0.00 | 0.00 | 69 | 1012.3 |
| 20260505084744 | 12 | 70 | 6.4 | 12.9 | 0.00 | 0.00 | 0.00 | 71 | 1012.4 |
| 20260505083711 | 12 | 22 | 6.4 | 17.7 | 0.00 | 0.00 | 0.00 | 71 | 1012.6 |
| 20260505082716 | 12 | 34 | 6.4 | 17.7 | 0.00 | 0.00 | 0.00 | 71 | 1012.5 |
| 20260505081740 | 11 | 355 | 6.4 | 14.5 | 0.00 | 0.00 | 0.00 | 72 | 1012.7 |
| 20260505080718 | 11 | 49 | 4.8 | 14.5 | 0.00 | 0.00 | 0.00 | 76 | 1012.6 |
| 20260505075647 | 11 | 26 | 8.0 | 12.9 | 0.00 | 0.00 | 0.00 | 75 | 1012.6 |
| 20260505074634 | 10 | 20 | 6.4 | 11.3 | 0.00 | 0.00 | 0.00 | 78 | 1012.6 |
| 20260505073602 | 10 | 38 | 4.8 | 9.7 | 0.00 | 0.00 | 0.00 | 81 | 1012.5 |
| 20260505072607 | 10 | 42 | 6.4 | 14.5 | 0.00 | 0.00 | 0.00 | 82 | 1012.7 |
| 20260505071623 | 10 | 39 | 8.0 | 16.1 | 0.00 | 0.00 | 0.00 | 82 | 1012.7 |
| 20260505065542 | 9 | 42 | 6.4 | 14.5 | 0.00 | 0.00 | 0.00 | 86 | 1013.0 |
| 20260505064541 | 8 | 55 | 9.7 | 14.5 | 0.00 | 0.00 | 0.00 | 87 | 1013.1 |
| 20260505063540 | 8 | 54 | 6.4 | 12.9 | 0.00 | 0.00 | 0.00 | 88 | 1013.3 |
| 20260505062525 | 8 | 45 | 4.8 | 9.7 | 0.00 | 0.00 | 0.00 | 89 | 1013.2 |
| 20260505061506 | 8 | 54 | 4.8 | 9.7 | 0.00 | 0.00 | 0.00 | 90 | 1013.2 |
| 20260505060503 | 7 | 67 | 1.6 | 6.4 | 0.00 | 0.00 | 0.00 | 90 | 1013.2 |
| 20260505055445 | 7 | 68 | 0.0 | 3.2 | 0.00 | 0.00 | 0.00 | 90 | 1013.2 |
| 20260505054419 | 7 | 68 | 1.6 | 4.8 | 0.00 | 0.00 | 0.00 | 90 | 1013.2 |
| 20260505053357 | 7 | 68 | 3.2 | 4.8 | 0.00 | 0.00 | 0.00 | 90 | 1013.2 |
| 20260505052347 | 7 | 69 | 1.6 | 4.8 | 0.00 | 0.00 | 0.00 | 89 | 1013.2 |
| 20260505051359 | 7 | 70 | 1.6 | 4.8 | 0.00 | 0.00 | 0.00 | 90 | 1013.2 |
| 20260505041139 | 7 | 75 | 3.2 | 4.8 | 0.00 | 0.00 | 0.00 | 89 | 1013.1 |